This demonstration page uses our WeatherBlox Daily Observations layout. Learn more.

Left ArrowRight Arrow

39.08367, -84.50855

Hourly Observations for January 28, 2021

Temp ( °F °C ) Dew Point ( °F °C ) Humidity (%) Winds ( mph kmh ) Pressure ( in mb ) Visibility ( mi km ) Precip ( " mm )
12:53 am 00:53 Clear 24 -4.4 17 -8.3 75 75 NNW 6 9 30.41 1030 10 16.0934 0 0
1:40 am 01:40 Cloudy 26 -3.3 18 -7.8 71 71 NNW 3 6 30.45 1031 10 16.0934 0 0
1:53 am 01:53 Cloudy 26 -3.3 18 -7.8 71 71 N 5 7 30.43 1030 10 16.0934 0 0
2:53 am 02:53 Partly Cloudy 25 -3.9 15 -9.4 66 66 N 12 19 30.46 1032 10 16.0934 0 0
3:53 am 03:53 Clear 22 -5.6 13 -10.6 68 68 NNW 5 7 30.49 1032 10 16.0934 0 0
4:53 am 04:53 Mostly Cloudy 22 -5.6 14 -10 71 71 NW 6 9 30.5 1033 10 16.0934 0 0
5:53 am 05:53 Cloudy 23 -5 15 -9.4 72 72 WNW 7 11 30.53 1034 10 16.0934 0 0
6:53 am 06:53 Clear 21 -6.1 15 -9.4 78 78 WNW 7 11 30.54 1034 10 16.0934 0 0
7:53 am 07:53 Mostly Sunny 22 -5.6 15 -9.4 75 75 WNW 6 9 30.58 1035 10 16.0934 0 0
8:53 am 08:53 Cloudy 24 -4.4 16 -8.9 71 71 NNW 6 9 30.59 1036 10 16.0934 0 0
9:53 am 09:53 Cloudy 25 -3.9 17 -8.3 72 72 WNW 5 7 30.61 1037 10 16.0934 0 0
10:53 am 10:53 Cloudy 27 -2.8 16 -8.9 63 63 WNW 7 11 30.63 1037 10 16.0934 0 0
11:53 am 11:53 Cloudy 27 -2.8 16 -8.9 63 63 NW 8 13 30.64 1038 10 16.0934 0.001 0.001
12:53 pm 12:53 Cloudy 28 -2.2 14 -10 56 56 WNW 13 20 30.63 1037 10 16.0934 0 0
1:53 pm 13:53 Mostly Cloudy 29 -1.7 14 -10 54 54 N 12 19 30.59 1036 10 16.0934 0 0
2:53 pm 14:53 Cloudy 30 -1.1 14 -10 51 51 N 9 15 30.6 1036 10 16.0934 0 0
3:53 pm 15:53 Cloudy 31 -0.6 16 -8.9 54 54 N 10 17 30.59 1036 10 16.0934 0 0
4:53 pm 16:53 Cloudy 31 -0.6 15 -9.4 52 52 NW 7 11 30.58 1036 10 16.0934 0 0
5:53 pm 17:53 Cloudy 29 -1.7 15 -9.4 56 56 NW 6 9 30.6 1036 10 16.0934 0 0
6:53 pm 18:53 Mostly Cloudy 29 -1.7 15 -9.4 56 56 NW 8 13 30.6 1036 10 16.0934 0 0
7:53 pm 19:53 Mostly Clear 28 -2.2 15 -9.4 58 58 NNW 5 7 30.59 1036 10 16.0934 0 0
8:53 pm 20:53 Cloudy 29 -1.7 15 -9.4 56 56 Calm 30.58 1035 10 16.0934 0 0
9:53 pm 21:53 Cloudy 26 -3.3 18 -7.8 71 71 Calm 30.56 1035 10 16.0934 0 0
10:53 pm 22:53 Mostly Cloudy 26 -3.3 18 -7.8 71 71 NNW 3 6 30.55 1034 10 16.0934 0 0
11:53 pm 23:53 Clear 26 -3.3 15 -9.4 63 63 WNW 6 9 30.55 1035 10 16.0934 0 0

Powered by AerisWeather